Location: Gleizolles
(44.4833°N, 6.7667°E)
Time: 16:09:39
(UTC+00:00)

Altair - Pass Details

Date: 03 July 2024
Orbit: 1502 x 1681 km, 47.2° (Epoch: 13 July)

Event Time Altitude Azimuth Distance (km) Brightness Sun altitude
Rises 00:51:00 0° 268° (W) 4,634 9.8 -20.5°
Reaches altitude 10° 00:54:01 10° 270° (W) 3,656 9.3 -20.3°
Maximum altitude 01:03:14 76° 357° (N) 1,567 7.6 -19.8°
Drops below altitude 10° 01:12:42 10° 83° (E) 3,750 9.9 -19.1°
Sets 01:15:50 0° 85° (E) 4,758 10.5 -18.9°
